Regional Weather Roundup
Issued by NWS Newport/Morehead, NC

Current Version | Previous Version | Graphics & Text | Print | Product List | Glossary Off
Versions: 1 2 3 4 5 6 7 8 9 10 11 12 13 14 15 16 17 18 19 20 21 22 23 24 25 26 27 28 29 30 31 32 33 34 35 36 37 38 39 40 41 42 43 44 45 46 47 48 49 50
000 ASUS42 KMHX 202226 RWRMHX WEATHER ROUNDUP FOR EASTERN NORTH CAROLINA NATIONAL WEATHER SERVICE NEWPORT/MOREHEAD CITY NC 600 PM EDT WED SEP 20 2017 NOTE: "FAIR" INDICATES FEW OR NO CLOUDS BELOW 12,000 FEET WITH NO SIGNIFICANT WEATHER AND/OR OBSTRUCTIONS TO VISIBILITY NCZ015>017-031-032-045>047-102-103-202300- NORTH COAST CITY SKY/WX TMP DP RH WIND PRES REMARKS EDENTON LGT RAIN 86 69 58 CALM 29.94R ELIZABETH CITY SUNNY 85 66 53 NW6 29.92S KITTY HAWK CLEAR 79 64 59 CALM 29.92R MANTEO SUNNY 80 68 65 CALM 29.93S $$ NCZ045>047-081-094-103-104-202300- CENTRAL COAST CITY SKY/WX TMP DP RH WIND PRES REMARKS FRISCO SUNNY 81 73 76 VRB3 29.94S $$ NCZ095-097-098-100-101-202300- SOUTHERN COAST CITY SKY/WX TMP DP RH WIND PRES REMARKS BEAUFORT MOSUNNY 81 73 76 SW10 29.95R CEDAR ISLAND NOT AVBL JACKSONVILLE SUNNY 87 70 56 SW3 29.93S PINEY ISLAND N/A N/A N/A N/A W5 29.93S WILMINGTON SUNNY 88 65 46 W6 29.94S $$ NCZ011>013-027>030-043-044-078>080-089-090>093-098-202300- COASTAL PLAIN CITY SKY/WX TMP DP RH WIND PRES REMARKS AHOSKIE N/A 80 70 72 CALM 29.94R CLINTON MOSUNNY 83 64 51 NW3 29.95S ELIZABETHTOWN NOT AVBL GOLDSBORO PTSUNNY 78 74 87 SE3 29.93S GREENVILLE SUNNY 82 70 65 CALM 29.96R HAVELOCK MOSUNNY 87 69 54 W7 29.95R KENANSVILLE SUNNY 86 70 58 CALM 29.94S KINSTON PTSUNNY 79 68 69 W7 29.95R NEW BERN MOSUNNY 87 69 54 W6 29.94S RICHLANDS SUNNY 87 71 58 CALM 29.94S ROCKY MOUNT MOSUNNY 86 75 69 CALM 29.94R WASHINGTON SUNNY 84 68 57 NW3 29.94R WHITEVILLE SUNNY 86 68 55 CALM 29.95S $$ AMZ130-135-150-152-154-156-158-170-250-252-270-ANZ085-086-088-633-658-670-202300- MARINE OBSERVATIONS STATION/POSITION TIME TEMP WIND PRES WAVE SWELL AIR SEA DIR/SP/G HT/PER HT/PER (UTC) (F) (DEG/KT/KT) (MB) (FT/S) (FT/S) CHESAPEAKE LIGHT NOT AVBL 64 E VA BEACH 2150 72 72 290/ 6/ 8 1013.1 7/11 7/11 DUCK 2200 80 75 20/ 2/ 2 1012.8 2 E DUCK 2200 76 N/A 5/11 2/11 OREGON INLET 2200 79 76 30/ 4/ 5 1013.4 13E OREGON INLT 2148 75 N/A 7/11 7/11 HATTERAS CG 2200 80 77 210/ 2/ 4 1013.9 DIAMOND BUOY 2150 78 76 240/ 8/ 10 1013.7 4/11 3/11 CAPE LOOKOUT 2200 80 220/ 8/ 11 1013.8 BEAUFORT LAB 2200 81 76 220/ 6/ 9 1013.5 30 SE NEW RVR IN 2208 81 230/ 10/ 14 1014.2 30 SE NEW RVR IN NOT AVBL 27 SE WRIGHTSVLE 2208 81 80 210/ 10/ 14 1014.4 5 SE WRIGHTSVLE 2208 80 79 200/ 12/ 17 1014.0 225 S CAPE HAT 2150 81 81 330/ 6/ 8 1015.5 7/11 7/11 41 SE CHARLESTON 2210 81 82 200/ 6/ 8 1014.7 $$

USA.gov is the U.S. government's official web portal to all federal, state and local government web resources and services.